Skip Page Navigation
NASA JPL Caltech
NASA Logo - Jet Propulsion Laboratory + View the NASA Portal
+ Near-Earth Object (NEO) Program
Search JPL
JPL Home Earth Solar System Stars & Galaxies Technology
JPL Solar System Dynamics
BODIES ORBITS EPHEMERIDES TOOLS PHYSICAL DATA DISCOVERY FAQ SITE MAP
JPL Small-Body Database Browser
Search: [ help ]  
13174 Timossi (1996 CT8)
Classification: Main-belt Asteroid          SPK-ID: 2013174
Ephemeris | Orbit Diagram | Orbital Elements | Physical Parameters | Discovery Circumstances ]

[ show orbit diagram ]
Orbital Elements at Epoch 2457000.5 (2014-Dec-09.0) TDB
Reference: JPL 14 (heliocentric ecliptic J2000)
 Element Value Uncertainty (1-sigma)   Units 
e .1056771845457662 6.6539e-08  
a 2.652834261751794 2.3671e-08 AU
q 2.372490205903318 1.6937e-07 AU
i 15.15240408689594 6.3418e-06 deg
node 136.8701788915631 2.37e-05 deg
peri 291.7620724461736 3.8698e-05 deg
M 197.9141566805089 3.2978e-05 deg
tp 2457711.068887566053
(2016-Nov-18.56888757)
0.00014753 JED
period 1578.205685857194
4.32
2.1123e-05
5.783e-08
d
yr
n .2281071492937043 3.0531e-09 deg/d
Q 2.93317831760027 2.6172e-08 AU
  Orbit Determination Parameters
   # obs. used (total)      704  
   data-arc span      6712 days (18.38 yr)  
   first obs. used      1996-02-14  
   last obs. used      2014-07-01  
   planetary ephem.      DE431  
   SB-pert. ephem.      SB431-BIG16  
   condition code      0  
   fit RMS      .51867  
   data source      ORB  
   producer      Otto Matic  
   solution date      2014-Nov-10 13:19:09  

Additional Information
 Earth MOID = 1.4326 AU 
 T_jup = 3.332 
[ show covariance matrix ]

Ephemeris | Orbit Diagram | Orbital Elements | Physical Parameters | Discovery Circumstances ]

Physical Parameter Table
Parameter Symbol Value Units Sigma Reference Notes
absolute magnitude H 14.2 mag n/a MPO263467  

13174 Timossi           Discovered 1996 Feb. 14 by M. Tombelli and U. Munari at Cima Ekar.
Aldo Timossi (b. 1946) is a promoter of conventions, workshops and scientific meetings related to the advancement of planetary and minor planet study and also of the IMPACT Project (International Monitoring Program for Asteroid and Comet Threat).
NOTE: some special characters may not display properly (any characters within {} are an attempt to place the proper accent above a character)
Reference: 20030501/MPCPages.arcLast Updated: 2003-10-02

Alternate Designations
 1996 CT8 = 1997 LU3 
Ephemeris | Orbit Diagram | Orbital Elements | Physical Parameters | Discovery Circumstances ]
ABOUT SSD CREDITS/AWARDS PRIVACY/COPYRIGHT GLOSSARY LINKS
FirstGov 2014-Nov-28 08:24 UT
(server date/time)  
NASA Home Page
Site Manager:   Donald K. Yeomans
Webmaster  Alan B. Chamberlin